Weather in Arbatskoe

Russia / Tyumen Oblast     56°17′11″N   70°26′56″E
temp.,
°C
wind,
m/s
gust,
m/s
humid.,
%
clouds,
%
prec.,
mm/h
press.,
hPa
HPBL,
m
18 may, tue
tue1823:00+17n376834 0.2 1012114
02:00+16wsw4772100 0.1 1011107
05:00+15wnw397341 0.1 1011209
08:00+20wnw475792 0.0 1010471
11:00+22wnw5750100 0.0 10101510
14:00+25nw584093 0.0 10092409
17:00+20n1012612 0.1 10101272
20:00+13nne6107993 0.0 1015662
19 may, wed
wed1923:00+12nne5118356 0.0 1015569
02:00+9n511895 0.0 1017383
05:00+9n510815 0.0 1019355
08:00+13nne57530 0.0 1020961
11:00+16n67415 0.0 10201770
14:00+17n78355 0.0 10202075
17:00+17n683622 0.0 10202211
20:00+13n49515 0.0 1021223
20 may, thu
thu2023:00+9nne375970 0.0 1023131
02:00+7nne3562100 0.0 102390
05:00+6nne226494 0.0 102446
08:00+11nnw1145100 0.0 1024550
11:00+14w2342100 0.0 10231036
14:00+17w4744100 0.0 10201663
17:00+16sw3558100 0.1 1018113
20:00+15sw4766100 0.4 1017123
21 may, fri
fri2123:00+15w376935 0.4 1016115
02:00+11n339149 0.2 101745
05:00+9ne35915 0.2 1019130
08:00+14nne35715 0.0 1020422
11:00+19nne45545 0.0 10211051
14:00+22ne34445 0.0 10211220
17:00+22ene22425 0.0 10201118
20:00+18sse22605 0.0 102117
22 may, sat
sat2223:00+14s34725 0.0 102150
02:00+13ssw35753 0.0 102067
05:00+13sw37805 0.0 1021140
08:00+20sw46565 0.0 1020363
11:00+26wsw34425 0.0 1019856
14:00+28wsw33325 0.0 10182577
17:00+28ssw343015 0.0 10172473
20:00+21se125181 0.4 101732